Janesville, WI

11:40 AM CST on December 11, 2017 (GMT -0600)
Rock County

Weather History for KJVL - May, 2013

Change the Weather History Date:

Wednesday, May 22, 2013

  Actual Average Record
Temperature  
Mean Temperature 65 °F -  
Max Temperature 73 °F 65 °F 87 °F (1992)
Min Temperature 57 °F 45 °F 37 °F (2003)
Growing Degree Days 15 (Base 50)    
Moisture  
Dew Point 54 °F    
Average Humidity 74    
Maximum Humidity 88    
Minimum Humidity 41    
Precipitation  
Precipitation 0.00 in - - ()
Sea Level Pressure  
Sea Level Pressure 29.68 in    
Wind  
Wind Speed 4 mph (SSE)    
Max Wind Speed 15 mph    
Max Gust Speed 21 mph    
Visibility 10 miles    
Events Rain    
Averages and records for this station are not official NWS values.
T = Trace of Precipitation, MM = Missing Value Source: NWS Daily Summary

Daily Weather History Graph

Daily Weather History Graph

Search for Another Location

Airport or City:

Trip Planner

Search our weather history database for the weather conditions in past years. The results will help you decide how hot, cold, wet, or windy it might be!

Date:

Astronomy

May. 22, 2013 Rise Set
Actual Time 5:27 AM CDT 8:18 PM CDT
Civil Twilight 4:54 AM CDT 8:52 PM CDT
Nautical Twilight 4:12 AM CDT 9:34 PM CDT
Astronomical Twilight 3:23 AM CDT 10:23 PM CDT
Moon 5:38 PM CDT (5/22) 3:35 AM CDT (5/22)
Length of Visible Light 15h 57m
Length of Day
14h 51m
Waxing Gibbous, 91% of the Moon is Illuminated
May 22
Waxing Gibbous
May 24
Full
May 31
Last Quarter
Jun 8
New
Jun 16
First Quarter

Hourly Weather History & Observations

Time (CDT) Temp. Dew Point Humidity Pressure Visibility Wind Dir Wind Speed Gust Speed Precip Events Conditions
12:15 AM 60.8 °F 53.6 °F 77% 29.67 in 10.0 mi East 3.5 mph - N/A   Clear
12:35 AM 60.8 °F 53.6 °F 77% 29.67 in 10.0 mi Calm Calm - N/A   Clear
12:55 AM 60.8 °F 53.6 °F 77% 29.67 in 10.0 mi Calm Calm - N/A   Clear
1:15 AM 59.0 °F 53.6 °F 82% 29.67 in 10.0 mi Calm Calm - N/A   Clear
1:35 AM 59.0 °F 53.6 °F 82% 29.66 in 10.0 mi Calm Calm - N/A   Clear
1:55 AM 59.0 °F 53.6 °F 82% 29.67 in 10.0 mi WNW 3.5 mph - N/A   Clear
2:15 AM 59.0 °F 55.4 °F 88% 29.67 in 10.0 mi Calm Calm - N/A   Scattered Clouds
4:55 AM 60.8 °F 53.6 °F 77% 29.62 in 10.0 mi East 5.8 mph - N/A   Clear
5:15 AM 60.8 °F 53.6 °F 77% 29.63 in 10.0 mi Calm Calm - N/A   Clear
5:35 AM 60.8 °F 53.6 °F 77% 29.63 in 10.0 mi Calm Calm - N/A   Clear
5:45 AM 62.6 °F 55.4 °F 77% 29.63 in 10.0 mi Calm Calm - N/A   Scattered Clouds
6:45 AM 62.6 °F 57.2 °F 82% 29.64 in 10.0 mi Calm Calm - N/A   Mostly Cloudy
7:45 AM 64.4 °F 57.2 °F 77% 29.63 in 10.0 mi Calm Calm - N/A   Mostly Cloudy
8:45 AM 64.4 °F 60.8 °F 88% 29.64 in 10.0 mi SSE 10.4 mph - N/A Rain Light Rain
9:45 AM 66.2 °F 60.8 °F 83% 29.63 in 10.0 mi SSE 3.5 mph - N/A   Mostly Cloudy
11:45 AM 69.8 °F 62.6 °F 78% 29.64 in 10.0 mi South 8.1 mph - N/A   Mostly Cloudy
12:45 PM 69.8 °F 59.0 °F 68% 29.65 in 10.0 mi SW 11.5 mph - N/A   Overcast
2:45 PM 73.4 °F 55.4 °F 53% 29.65 in 10.0 mi WSW 9.2 mph - N/A   Mostly Cloudy
3:45 PM 71.6 °F 51.8 °F 50% 29.65 in 10.0 mi WSW 12.7 mph - N/A   Overcast
4:45 PM 73.4 °F 48.2 °F 41% 29.65 in 10.0 mi SW 11.5 mph 17.3 mph N/A   Overcast
5:45 PM 71.6 °F 51.8 °F 50% 29.66 in 10.0 mi WSW 15.0 mph 20.7 mph N/A   Mostly Cloudy
7:45 PM 68.0 °F 51.8 °F 56% 29.69 in 10.0 mi WSW 12.7 mph - N/A   Mostly Cloudy
8:45 PM 66.2 °F 53.6 °F 64% 29.70 in 10.0 mi WSW 8.1 mph - N/A   Overcast
9:15 PM 64.4 °F 53.6 °F 68% 29.71 in 10.0 mi West 5.8 mph - N/A   Mostly Cloudy
9:35 PM 62.6 °F 53.6 °F 72% 29.72 in 10.0 mi NNE 5.8 mph - N/A   Overcast
9:55 PM 60.8 °F 53.6 °F 77% 29.73 in 7.0 mi NE 10.4 mph - N/A   Overcast
10:15 PM 59.0 °F 53.6 °F 82% 29.74 in 10.0 mi ENE 12.7 mph - N/A   Overcast
10:35 PM 59.0 °F 53.6 °F 82% 29.75 in 10.0 mi East 5.8 mph - N/A   Overcast
10:55 PM 59.0 °F 53.6 °F 82% 29.75 in 10.0 mi East 8.1 mph - N/A   Overcast
11:15 PM 57.2 °F 53.6 °F 88% 29.75 in 10.0 mi East 8.1 mph - N/A   Overcast
11:35 PM 57.2 °F 51.8 °F 82% 29.76 in 10.0 mi East 6.9 mph - N/A   Overcast
11:55 PM 57.2 °F 51.8 °F 82% 29.76 in 10.0 mi East 9.2 mph - N/A   Overcast